SL-16 DEB, 39724

Orbit data source: Space-Track

SL-16 DEB, 39724 is space debris in LEO originally from a launch on Fri, 25 Dec 1992 UTC launched from the Tyuratam Missile And Space Complex (TTMTR). Debris objects in space refer to the collection of defunct objects orbiting the Earth. Examples of debris include non-operational satellites, rocket bodies, and fragments generated from explosions, collisions, or faulty payload assembly.

Loading next visibility...
Identifier
39724, 1992-093KQ
Orbit
LEO
Country
Flag of CISCIS
Related business
Manufacturer
Unknown
Mission
Spacecraft
Bus & Motor
Unknown
Mass
Unknown
Launch date (UTC)
1992-12-25 (33 years ago)
Launch vehicle
Unknown
Launch site
Tyuratam Missile And Space Complex (TTMTR)
Object type
Payload
Rocket body
Debris
Shape & HBR
Unknown shape, 0.1 m
Radar Cross Section
Small (<0.1 m²)

Expand to show TLE details & history
Last TLE update: 2 days ago

TLE from 2 days ago
0 SL-16 DEB
1 39724U 92093KQ  25351.20994381  .00000488  00000-0  33235-3 0  9999
2 39724  70.8501 285.2702 0090133 209.5391 150.0616 14.03031366596713
Epoch: 2025-12-17T05:02Z
TLE epoch observation values (Epoch: 2025-12-17T05:02:19.145Z)
Latitude
-0.00004°
Longitude
123.60734°
Altitude
942.563 km
Speed
7.352 km/s
True Right ascension
19h 01m 04s
True Declination
0° 00' 00"
Sunlit
Object was in daylight at epoch
Visualization orbit readout
Latitude
Unknown
Longitude
Unknown
Altitude
Unknown
Speed
Unknown
Apparent Right ascension
Unknown
Apparent Declination
Unknown
Sunlit
N/A
Visualization observer readout
Local Sidereal Time
11:26:10
Azimuth
Unknown
Elevation
Unknown
Doppler factor
Unknown
Orbital elements
Apogee altitude
946.699 km
Perigee altitude
815.837 km
Semi-major axis
7,259.405 km
Eccentricity
0.00901
Inclination
70.8501°
RAAN
285.2702°
Arg. of periapsis
209.5391°
True anomaly
150.57207°
Mean anomaly
150.0616°
Eccentric anomaly
150.31733°
Mean motion
3.50907 °/min
Orbital period
102.59 mins
BSTAR
0.00033235
Loading maneuver chart data...
Computing Atmospheric mass density...
Loading historical data...
Loading historical data...
Loading historical data...
Loading historical data...
Loading historical data...
Loading historical data...
Loading historical data...

Documentation

Showing up to 5 results
|